La Junta, CO

10:50 AM MST on November 20, 2019 (GMT -0700)
La Junta Municipal

Weather History for KLHX - October, 2019

Change the Weather History Date:

Monday, October 21, 2019

  Actual Average Record
Temperature  
Mean Temperature 45 °F -  
Max Temperature 61 °F 68 °F 90 °F (2003)
Min Temperature 29 °F 37 °F 25 °F (1987)
Degree Days  
Heating Degree Days 20 13  
Month to date heating degree days 228 199  
Since 1 July heating degree days 230 272  
Cooling Degree Days 0 0  
Moisture  
Dew Point 10 °F    
Average Humidity 25    
Maximum Humidity 33    
Minimum Humidity 12    
Precipitation  
Precipitation 0.00 in 0.04 in 0.60 in (1979)
Month to date precipitation 0.01 0.64  
Year to date precipitation 5.84 10.55  
Sea Level Pressure  
Sea Level Pressure 29.96 in    
Wind  
Wind Speed 7 mph ()    
Max Wind Speed 20 mph    
Max Gust Speed 34 mph    
Visibility 10.0 miles    
Events      
T = Trace of Precipitation, MM = Missing Value Source: Averaged Metar Reports

Daily Weather History Graph

Daily Weather History Graph

Search for Another Location

Airport or City:

Astronomy

Oct. 21, 2019 Rise Set
Actual Time 7:08 AM MDT 6:08 PM MDT
Civil Twilight 6:41 AM MDT 6:35 PM MDT
Nautical Twilight 6:10 AM MDT 7:05 PM MDT
Astronomical Twilight 5:40 AM MDT 7:36 PM MDT
Moon No Moon Rise 2:24 PM MDT (10/21)
Length of Visible Light 11h 53m
Length of Day
11h 00m
Waning Gibbous, 47% of the Moon is Illuminated
Oct 21
Waning Gibbous
Oct 27
New
Nov 4
First Quarter
Nov 12
Full
Nov 19
Last Quarter

Hourly Weather History & Observations

Time (MDT) Temp. Windchill Dew Point Humidity Pressure Visibility Wind Dir Wind Speed Gust Speed Precip Events Conditions
12:53 AM 33.1 °F 24.9 °F 5.0 °F 31% 29.83 in 10.0 mi West 10.4 mph - N/A   Clear
1:53 AM 33.1 °F 25.5 °F 5.0 °F 31% 29.84 in 10.0 mi NNW 9.2 mph - N/A   Clear
2:53 AM 34.0 °F 26.6 °F 7.0 °F 32% 29.83 in 10.0 mi West 9.2 mph - N/A   Clear
3:53 AM 34.0 °F 25.5 °F 7.0 °F 32% 29.85 in 10.0 mi West 11.5 mph - N/A   Clear
4:53 AM 30.9 °F 22.8 °F 5.0 °F 33% 29.88 in 10.0 mi SW 9.2 mph - N/A   Clear
5:53 AM 33.1 °F 26.9 °F 6.1 °F 32% 29.90 in 10.0 mi SW 6.9 mph - N/A   Clear
6:53 AM 30.9 °F 27.5 °F 5.0 °F 33% 29.94 in 10.0 mi Variable 3.5 mph - N/A   Clear
7:53 AM 37.0 °F 30.4 °F 7.0 °F 29% 29.93 in 10.0 mi SW 9.2 mph - N/A   Clear
8:53 AM 43.0 °F 37.7 °F 6.1 °F 22% 29.95 in 10.0 mi SSW 9.2 mph - N/A   Clear
9:53 AM 48.9 °F - 9.0 °F 20% 29.94 in 10.0 mi SW 6.9 mph - N/A   Clear
10:53 AM 52.0 °F - 10.9 °F 19% 29.94 in 10.0 mi Variable 4.6 mph - N/A   Clear
11:53 AM 54.0 °F - 10.9 °F 18% 29.95 in 10.0 mi West 8.1 mph - N/A   Clear
12:53 PM 55.9 °F - 8.1 °F 15% 29.94 in 10.0 mi NW 6.9 mph 18.4 mph N/A   Clear
1:53 PM 57.0 °F - 9.0 °F 15% 29.92 in 10.0 mi NW 8.1 mph 19.6 mph N/A   Scattered Clouds
2:53 PM 60.1 °F - 8.1 °F 13% 29.91 in 10.0 mi NNW 8.1 mph 18.4 mph N/A   Partly Cloudy
3:53 PM 57.9 °F - 8.1 °F 14% 29.93 in 10.0 mi NW 6.9 mph - N/A   Clear
4:53 PM 57.0 °F - 9.0 °F 15% 29.96 in 10.0 mi North 13.8 mph 19.6 mph N/A   Partly Cloudy
5:53 PM 54.0 °F - 9.0 °F 17% 29.99 in 10.0 mi NE 8.1 mph - N/A   Mostly Cloudy
6:53 PM 53.1 °F - 17.1 °F 24% 30.04 in 10.0 mi WNW 12.7 mph 23.0 mph N/A   Mostly Cloudy
7:53 PM 52.0 °F - 14.0 °F 22% 30.08 in 10.0 mi North 11.5 mph - N/A   Overcast
8:53 PM 48.9 °F - 19.0 °F 31% 30.10 in 10.0 mi NNE 5.8 mph - N/A   Mostly Cloudy
9:53 PM 43.0 °F 38.8 °F 15.1 °F 32% 30.12 in 10.0 mi NE 6.9 mph - N/A   Clear
10:53 PM 43.0 °F - 15.1 °F 32% 30.13 in 10.0 mi Calm Calm - N/A   Clear
11:53 PM 44.1 °F - 15.1 °F 31% 30.13 in 10.0 mi Calm Calm - N/A   Clear